Location: Góry Miechowskie
(50.3599°N, 20.1803°E)
Time: 04:27:17
(UTC+00:00)

Cosmos 2228 - Pass Details

Date: 23 September 2024
Orbit: 574 x 600 km, 82.5° (Epoch: 11 October)

Event Time Altitude Azimuth Distance (km) Brightness Sun altitude
Exits shadow 01:57:28 18° 326° (NW) 1,511 5.0 -23.6°
Drops below altitude 10° 01:59:08 10° 345° (NNW) 1,953 5.8 -23.4°
Sets 02:01:47 0° 1° (N) 2,865 6.9 -23.0°
